Wind_Speed
13 13 14 14 13 12 12 13 13 14 14 14 14 13 13 13 14 14 14 14 14 14 14 15 16 17 17 18 19 19 20 20 21 22 22 23 23 23 23 22 22 22 22
15 15 15 15 14 13 13 14 14 14 15 16 15 15 15 15 16 16 16 16 16 16 16 16 17 17 18 18 19 20 20 21 21 22 23 23 23 24 23 23 23 23 23
16 16 17 17 17 16 15 15 16 16 16 17 16 16 16 17 17 17 18 18 18 18 18 18 18 19 19 19 19 20 20 21 22 22 23 24 24 24 24 24 24 24 25
18 18 18 18 18 18 17 17 17 17 17 17 18 18 18 19 19 19 19 19 19 20 20 20 20 21 21 21 21 22 22 23 23 23 24 24 24 25 25 25 25 26 26
19 20 20 19 19 18 18 18 18 18 18 19 19 19 20 20 20 20 20 20 21 21 21 22 22 22 23 23 23 24 25 25 25 25 25 25 26 27 28 28 28 28 28
20 20 20 20 20 19 19 19 19 20 20 20 20 20 20 21 21 21 21 22 22 23 23 24 24 24 25 25 25 25 26 27 27 27 27 27 27 29 30 30 30 30 30
21 21 21 21 21 21 21 21 22 22 22 22 22 22 22 23 22 22 23 23 24 24 25 25 26 25 26 26 26 27 27 27 28 28 29 29 30 30 31 32 32 32 32
21 22 23 23 23 23 23 24 23 23 24 24 24 25 25 25 25 25 25 25 26 26 26 26 27 27 27 28 28 28 29 29 29 29 30 30 30 31 32 32 33 34 34
23 23 24 24 25 24 25 25 25 25 26 26 27 27 27 27 27 26 26 26 27 27 27 27 27 28 28 28 29 28 28 29 30 30 30 31 32 33 33 34 34 34 34
25 26 26 25 25 26 26 26 26 26 26 27 27 28 28 28 27 26 27 27 27 27 27 27 28 29 29 29 29 29 29 30 31 32 32 33 33 34 34 35 35 35 35
27 27 27 27 27 27 27 26 27 27 27 27 28 28 27 27 27 27 27 27 27 27 28 28 28 29 29 30 30 30 31 32 33 33 34 34 34 35 36 36 36 36 36
28 28 28 28 28 28 27 27 27 27 27 28 28 27 27 27 27 27 27 27 27 27 27 28 29 29 30 30 31 32 32 33 34 35 35 36 36 36 36 36 37 37 37
29 29 28 28 28 27 27 27 27 27 27 27 26 27 26 27 28 27 26 27 28 29 28 28 29 30 31 32 33 33 34 34 34 35 36 36 37 37 37 37 37 37 37
29 28 28 28 27 27 27 27 27 27 27 26 26 26 26 26 26 26 27 28 29 29 29 29 30 30 31 32 33 34 34 35 35 35 35 36 36 37 37 38 38 37 37
29 28 28 28 28 28 27 27 27 26 26 25 25 26 25 25 25 27 28 28 28 28 29 30 31 31 31 32 33 34 34 34 34 34 34 35 36 36 37 38 38 37 37
28 29 29 28 28 28 28 27 27 26 26 26 26 26 25 25 26 27 27 28 29 29 30 31 31 31 31 32 33 33 34 35 34 34 35 36 36 36 36 36 37 36 36
28 29 29 29 28 28 27 27 27 27 28 27 26 26 26 27 26 26 27 28 29 29 30 30 31 31 32 32 32 33 33 34 34 34 35 36 37 36 36 36 36 35 35
28 29 29 28 28 27 28 28 28 28 28 28 28 28 28 28 27 27 27 28 29 29 30 31 31 31 31 31 32 33 33 33 34 35 35 35 35 36 36 35 35 35 34
28 28 28 28 27 27 28 28 28 28 28 28 29 29 29 28 28 28 28 29 29 30 30 31 31 30 30 31 32 33 33 34 34 34 34 34 35 35 35 35 35 35 35
27 27 28 28 28 28 28 28 28 28 28 28 28 29 29 29 29 29 29 30 30 30 30 30 30 31 31 32 32 33 33 33 33 34 33 34 34 35 35 35 35 35 34
28 28 28 28 28 29 29 28 28 28 28 28 28 29 29 29 29 29 30 31 31 31 31 31 31 32 32 32 32 32 32 32 32 33 33 33 33 33 33 34 35 35 35
28 28 27 27 28 28 27 27 27 26 27 28 28 29 29 29 29 30 31 31 31 31 31 32 31 32 32 32 32 31 31 31 31 32 32 32 33 33 33 33 33 34 34
27 27 27 27 28 27 27 27 27 26 27 28 28 28 29 29 29 30 31 32 32 31 31 31 31 31 31 31 31 31 31 31 30 31 31 31 31 32 32 32 32 33 33
26 26 26 27 27 27 27 27 27 26 26 27 27 28 28 29 29 30 31 32 32 31 31 30 30 31 31 30 31 31 31 31 30 31 31 32 32 32 32 32 32 32 32
27 27 27 27 27 27 27 27 27 27 26 26 27 27 28 29 29 30 30 31 31 30 30 30 30 30 30 30 30 30 29 30 30 30 31 31 31 32 32 32 31 31 31
27 27 27 27 26 26 26 26 27 27 27 27 27 27 29 29 29 29 29 29 30 29 29 29 29 29 29 29 29 30 30 31 31 32 32 32 32 32 31 31 30 30 30
Wind_Direction
306 305 305 305 302 292 288 290 291 293 295 291 289 287 285 286 285 285 285 283 281 281 278 276 277 278 277 276 275 275 274 274 274 274 275 275 275 277 277 277 280 281 280
302 304 304 306 302 295 289 289 290 291 292 292 289 286 283 283 283 282 282 282 281 282 281 281 279 279 279 278 277 277 275 274 275 275 276 276 277 278 279 280 281 281 281
299 302 303 303 301 294 290 290 290 289 290 289 289 287 284 283 282 282 281 278 279 280 282 281 280 280 281 282 282 281 280 277 277 276 276 275 275 277 278 280 281 280 282
298 301 302 302 300 295 289 288 287 287 288 289 288 285 284 283 282 282 281 279 278 278 279 280 280 280 281 281 282 282 282 281 282 280 278 276 275 276 277 278 279 280 280
296 297 298 300 299 295 290 287 286 286 287 287 288 285 282 281 281 280 280 280 279 278 279 280 279 279 280 280 280 280 280 281 283 283 281 278 275 276 277 278 278 279 280
294 294 294 294 296 295 291 289 287 285 286 286 286 284 282 281 280 279 279 279 280 279 279 281 280 281 281 281 280 280 281 281 281 281 281 279 278 277 279 279 280 280 280
292 292 291 291 291 293 291 289 286 284 282 283 282 282 282 281 280 279 279 280 280 280 280 282 282 282 282 282 281 280 281 281 281 280 280 279 278 278 278 279 280 281 281
290 289 289 291 290 290 290 289 287 284 282 282 282 281 279 279 279 279 280 281 280 280 282 282 282 282 282 282 283 284 283 282 282 282 281 281 281 280 280 281 281 281 280
289 290 291 291 291 290 290 288 287 286 284 282 282 281 280 279 279 278 280 282 282 281 283 282 281 281 282 283 283 284 284 284 283 282 282 282 283 282 282 283 282 283 282
291 292 293 293 292 293 293 292 291 288 287 285 283 282 280 279 280 279 280 282 282 281 282 282 282 282 281 281 282 282 283 285 285 283 283 283 284 284 284 284 284 283 283
291 293 294 294 294 294 292 291 291 289 289 287 285 283 280 279 278 280 281 282 282 281 281 282 283 283 282 281 281 282 283 284 285 285 285 284 284 285 284 284 284 284 283
289 290 292 292 294 293 291 290 291 291 290 288 287 284 282 280 279 279 278 280 280 282 282 281 282 283 284 283 283 284 285 285 285 285 286 286 286 286 286 285 284 284 284
290 290 291 292 293 292 290 290 290 291 291 291 288 285 283 281 281 279 279 280 282 284 284 284 285 285 286 286 285 285 285 285 285 285 285 285 286 287 287 287 286 285 284
289 288 289 290 291 292 290 289 289 289 290 291 289 286 284 283 282 281 282 282 284 286 286 285 285 286 286 287 287 287 287 286 285 285 286 286 287 287 288 289 289 287 287
288 289 290 291 291 291 292 290 288 287 287 288 289 288 284 284 283 283 284 285 286 286 287 287 288 288 287 287 286 286 287 287 287 286 287 288 287 288 288 288 289 289 288
288 290 290 290 290 290 290 289 288 289 289 291 291 290 289 288 288 287 287 288 288 289 289 290 290 289 289 289 289 288 289 289 289 288 289 290 290 290 291 291 290 289 289
287 289 290 290 289 288 287 288 288 289 289 290 290 289 289 289 289 289 288 289 289 289 291 293 293 292 291 290 290 291 291 290 290 290 290 291 292 292 293 294 293 291 290
288 290 289 289 287 286 286 287 288 288 287 288 288 288 288 288 289 290 291 290 290 291 292 293 293 293 292 290 292 293 292 292 292 292 291 292 293 294 294 295 295 293 292
289 289 288 287 286 285 285 286 287 287 287 287 288 288 287 288 290 290 291 292 293 293 293 293 293 292 292 292 293 295 294 294 294 293 292 292 292 294 295 295 295 294 294
290 288 287 287 286 286 286 287 287 287 287 288 289 289 288 288 289 291 292 293 294 294 294 294 293 293 293 293 293 294 295 295 295 295 294 294 294 295 295 296 296 296 296
293 292 291 290 289 289 289 288 288 288 288 288 290 290 290 289 291 292 293 294 295 295 295 294 293 294 294 294 294 295 295 295 295 295 294 295 296 296 295 295 296 297 296
293 293 293 292 292 292 293 291 290 289 288 288 289 290 290 290 291 293 294 295 296 296 296 295 293 293 294 294 295 295 296 296 296 297 296 296 296 295 295 295 295 296 297
293 294 294 293 292 292 292 292 289 288 288 288 288 289 289 290 291 293 294 295 295 295 295 296 295 295 293 293 294 295 296 297 298 298 299 300 299 298 297 297 297 298 298
295 295 295 295 294 292 293 294 294 292 291 290 291 291 291 291 292 293 294 295 295 294 294 295 296 297 296 297 299 299 297 298 299 300 301 301 301 302 301 301 300 299 299
294 294 293 293 294 294 294 294 294 294 293 292 292 293 292 293 294 295 295 296 297 295 296 297 298 298 297 297 298 300 301 301 301 301 302 302 301 302 303 302 301 301 301
292 292 292 292 293 294 296 296 295 294 294 293 293 294 294 294 294 295 297 297 296 295 296 296 296 297 298 298 298 299 300 301 301 301 302 304 304 303 303 303 301 301 301
Height
5872 5871 5870 5868 5867 5865 5864 5864 5864 5863 5862 5861 5860 5859 5858 5858 5857 5857 5856 5855 5854 5853 5853 5852 5851 5851 5850 5849 5849 5848 5848 5847 5847 5846 5845 5844 5844 5843 5842 5841 5840 5839 5838
5869 5868 5867 5865 5864 5862 5861 5861 5860 5859 5858 5857 5856 5855 5854 5854 5853 5853 5852 5851 5850 5850 5849 5848 5847 5846 5845 5845 5844 5843 5842 5841 5841 5840 5839 5838 5837 5837 5836 5835 5834 5833 5832
5866 5864 5863 5862 5860 5859 5858 5857 5856 5855 5854 5852 5851 5851 5850 5849 5849 5848 5847 5846 5846 5845 5844 5843 5842 5841 5840 5839 5838 5837 5836 5835 5834 5834 5833 5832 5831 5830 5829 5828 5827 5826 5825
5861 5860 5859 5857 5856 5855 5853 5852 5851 5850 5849 5848 5846 5845 5845 5844 5843 5842 5842 5841 5840 5839 5838 5837 5836 5836 5835 5834 5833 5832 5830 5829 5827 5827 5826 5825 5824 5823 5822 5821 5820 5819 5818
5857 5855 5854 5853 5851 5850 5848 5847 5846 5845 5844 5842 5841 5840 5839 5838 5838 5837 5836 5835 5834 5833 5832 5831 5830 5829 5828 5827 5826 5825 5824 5822 5821 5820 5819 5818 5817 5816 5815 5814 5812 5811 5810
5852 5850 5849 5847 5846 5844 5843 5842 5841 5839 5838 5836 5835 5834 5833 5832 5831 5831 5830 5828 5827 5826 5825 5824 5823 5822 5821 5820 5819 5818 5817 5815 5814 5812 5811 5810 5809 5808 5807 5805 5804 5802 5802
5846 5844 5843 5841 5840 5839 5837 5836 5834 5833 5832 5830 5829 5828 5827 5826 5824 5824 5823 5822 5820 5819 5818 5817 5816 5814 5813 5812 5811 5810 5808 5807 5806 5805 5803 5802 5801 5799 5798 5796 5794 5793 5792
5840 5838 5837 5835 5834 5832 5830 5829 5827 5825 5824 5823 5822 5821 5819 5818 5817 5816 5815 5814 5813 5812 5810 5809 5808 5807 5805 5804 5803 5801 5800 5799 5797 5796 5794 5793 5791 5789 5788 5786 5784 5783 5782
5834 5832 5830 5828 5826 5824 5823 5821 5819 5817 5816 5815 5814 5813 5812 5810 5809 5808 5807 5806 5805 5803 5802 5801 5800 5798 5797 5796 5794 5793 5792 5790 5788 5787 5785 5783 5781 5780 5778 5776 5775 5773 5772
5827 5825 5823 5821 5819 5817 5815 5813 5811 5810 5808 5807 5805 5804 5803 5802 5801 5799 5798 5797 5796 5795 5794 5793 5791 5790 5789 5787 5786 5784 5783 5781 5779 5777 5775 5773 5772 5770 5768 5766 5764 5762 5761
5819 5818 5816 5813 5811 5809 5807 5805 5803 5802 5800 5798 5797 5795 5794 5793 5792 5791 5790 5789 5788 5786 5785 5784 5783 5781 5779 5778 5776 5775 5773 5772 5770 5768 5766 5764 5762 5760 5757 5755 5753 5751 5750
5811 5810 5808 5806 5803 5801 5799 5797 5795 5794 5792 5790 5789 5787 5785 5784 5784 5783 5782 5781 5779 5778 5777 5775 5774 5772 5770 5768 5767 5765 5763 5762 5760 5758 5756 5754 5751 5749 5747 5744 5742 5740 5738
5803 5802 5800 5798 5795 5793 5791 5789 5788 5786 5784 5782 5780 5779 5778 5777 5776 5775 5773 5772 5771 5769 5768 5766 5765 5763 5761 5759 5757 5755 5753 5751 5750 5748 5746 5744 5741 5739 5736 5734 5731 5729 5727
5795 5794 5792 5790 5788 5786 5783 5781 5780 5778 5776 5774 5772 5771 5770 5769 5768 5767 5765 5764 5762 5760 5759 5757 5755 5753 5751 5749 5747 5745 5743 5741 5739 5737 5735 5733 5731 5728 5726 5723 5721 5718 5716
5786 5785 5783 5781 5780 5778 5776 5774 5772 5770 5768 5767 5765 5764 5763 5761 5760 5759 5757 5756 5754 5752 5750 5748 5746 5744 5742 5740 5738 5735 5733 5731 5729 5727 5725 5723 5720 5717 5715 5712 5710 5707 5705
5778 5777 5775 5773 5771 5769 5767 5765 5763 5762 5761 5759 5757 5756 5755 5754 5752 5750 5748 5747 5745 5743 5741 5738 5736 5734 5732 5730 5728 5725 5723 5721 5719 5716 5714 5712 5709 5707 5704 5701 5698 5696 5694
5770 5768 5767 5765 5763 5761 5759 5758 5756 5755 5753 5751 5750 5748 5747 5745 5744 5742 5740 5738 5736 5734 5732 5729 5727 5725 5723 5720 5718 5716 5713 5711 5708 5706 5704 5701 5698 5695 5693 5690 5688 5685 5682
5761 5760 5758 5756 5754 5752 5751 5750 5748 5746 5745 5744 5742 5741 5739 5737 5736 5734 5732 5730 5727 5725 5723 5720 5718 5716 5713 5711 5708 5706 5703 5700 5698 5696 5693 5691 5688 5685 5682 5680 5677 5674 5672
5754 5752 5750 5748 5746 5744 5743 5742 5740 5738 5736 5735 5734 5733 5731 5729 5727 5725 5723 5721 5719 5716 5714 5711 5709 5706 5704 5702 5699 5696 5693 5690 5688 5685 5683 5681 5678 5675 5672 5669 5667 5664 5661
5745 5744 5742 5740 5738 5736 5735 5733 5731 5730 5728 5727 5726 5724 5722 5720 5718 5716 5714 5712 5710 5707 5705 5702 5700 5697 5695 5692 5689 5686 5684 5681 5678 5675 5673 5670 5668 5665 5662 5659 5657 5654 5651
5737 5735 5733 5732 5730 5728 5726 5724 5723 5721 5720 5719 5717 5715 5713 5711 5709 5707 5705 5703 5700 5697 5695 5693 5690 5688 5685 5682 5679 5676 5674 5671 5668 5666 5663 5660 5658 5655 5652 5649 5647 5644 5641
5729 5727 5725 5724 5722 5720 5718 5716 5714 5713 5712 5710 5708 5706 5704 5702 5701 5699 5696 5693 5691 5688 5685 5683 5680 5678 5675 5673 5670 5667 5665 5662 5659 5656 5653 5650 5648 5645 5642 5639 5637 5634 5631
5721 5719 5717 5716 5714 5712 5710 5708 5706 5705 5703 5701 5699 5698 5696 5694 5692 5690 5687 5684 5682 5679 5676 5673 5671 5668 5666 5663 5660 5658 5655 5653 5650 5647 5644 5641 5638 5635 5632 5629 5626 5624 5621
5714 5712 5710 5708 5706 5705 5703 5701 5699 5697 5695 5693 5691 5689 5687 5685 5683 5680 5678 5675 5672 5669 5667 5664 5661 5659 5656 5654 5651 5649 5646 5644 5641 5638 5635 5632 5629 5626 5623 5620 5617 5614 5611
5706 5704 5702 5700 5699 5697 5695 5693 5691 5689 5687 5685 5683 5681 5679 5676 5674 5672 5669 5666 5663 5660 5658 5655 5653 5650 5647 5645 5642 5640 5637 5634 5631 5628 5626 5623 5619 5616 5613 5610 5607 5604 5601
5697 5695 5694 5692 5690 5689 5687 5685 5683 5681 5679 5677 5675 5673 5670 5668 5665 5662 5660 5657 5654 5651 5649 5647 5644 5642 5639 5636 5634 5631 5628 5625 5622 5619 5616 5613 5610 5607 5603 5601 5598 5594 5592